Temperature
16 16 17 17 20 21 21 20 19 19 19 17 17 18 19 19 19 17 13 13 13 13 13 14 14 14 14 14 14 15 15 15 15 15 15 15 15 15 15 15 14 15 15 15 15 15 15 15 15
15 16 17 18 21 21 20 20 19 18 17 16 16 17 17 16 13 13 12 13 13 13 13 13 14 14 14 14 14 14 14 14 15 15 15 15 15 14 14 14 14 14 14 15 14 14 15 15 15
16 16 17 20 20 21 20 19 18 17 16 16 16 15 15 13 12 12 12 13 13 13 13 13 13 13 14 14 14 14 14 14 14 14 14 14 14 14 14 14 14 14 14 14 14 14 14 14 14
16 16 17 20 19 18 18 18 17 17 16 15 15 15 12 11 11 11 12 12 12 13 13 13 13 13 13 13 14 14 14 14 14 14 14 14 14 14 14 14 14 14 14 14 14 14 14 14 14
16 17 19 19 18 17 17 15 16 17 16 15 15 15 13 11 11 11 12 12 12 12 13 13 13 13 13 13 13 13 13 13 13 14 14 14 14 14 14 14 14 14 14 14 14 14 14 14 14
16 18 19 19 18 17 16 14 15 16 15 14 14 14 12 10 11 11 11 12 12 12 12 12 12 13 13 13 13 13 13 13 13 13 13 13 13 14 14 14 14 14 14 14 14 14 14 14 14
16 18 18 18 17 16 15 14 14 15 15 13 12 14 12 10 10 11 11 11 11 12 12 12 12 12 12 12 12 12 12 12 13 13 13 13 13 13 13 13 13 13 13 13 13 14 14 14 14
14 17 16 16 16 15 14 13 12 13 13 10 10 12 11 9 10 10 11 11 11 11 11 11 12 12 12 12 12 12 12 12 12 12 12 12 13 13 13 13 13 13 13 13 13 13 13 13 13
13 16 16 16 15 14 13 13 11 10 10 9 8 8 8 9 9 10 10 10 11 11 11 11 11 11 11 11 12 12 12 12 12 12 12 12 12 12 12 12 12 12 13 13 13 13 13 13 13
14 15 14 13 14 13 12 11 11 11 10 9 8 7 8 8 9 9 10 10 10 10 11 11 11 11 11 11 11 11 11 11 11 11 11 11 12 12 12 12 12 12 12 12 12 12 12 12 12
13 13 12 11 11 11 11 10 9 11 10 8 7 7 7 8 8 8 9 9 9 9 10 10 10 10 10 10 11 11 11 11 11 11 11 11 11 11 11 12 12 12 12 12 12 12 12 12 12
12 11 11 10 9 9 10 9 8 8 7 6 6 6 6 7 7 8 8 8 8 9 9 9 10 10 10 10 10 10 10 11 11 11 11 11 11 11 11 11 11 11 11 11 11 11 11 12 11
11 10 9 8 8 8 8 8 7 6 5 5 5 5 6 6 6 6 7 7 8 8 8 9 9 9 9 10 10 10 10 10 10 10 11 10 11 11 11 11 11 11 11 11 11 11 11 11 11
10 9 9 8 8 8 8 7 7 5 5 5 4 4 4 5 5 6 6 6 7 7 7 8 8 9 9 9 9 9 9 10 10 10 10 10 10 10 10 10 10 10 11 11 10 10 11 11 11
9 10 10 9 8 8 8 8 6 4 4 4 4 3 3 4 4 4 5 5 6 6 6 7 7 8 8 8 9 9 9 9 9 9 10 10 10 10 10 10 10 10 10 10 10 10 10 10 10
10 11 11 9 8 8 9 9 6 4 4 4 3 3 3 3 3 3 4 5 5 5 6 6 6 7 7 8 8 8 8 8 9 9 9 9 9 9 9 9 9 10 10 10 10 10 10 10 10
11 11 11 9 8 8 9 8 6 4 4 4 3 2 2 2 2 2 3 4 4 5 5 5 6 6 7 7 7 7 8 8 8 8 8 9 9 9 9 9 9 9 9 9 9 9 9 9 9
11 11 10 10 8 8 8 7 5 3 3 3 2 2 2 1 1 2 2 3 3 4 4 5 5 6 6 6 7 7 7 7 7 8 8 8 8 8 8 8 8 8 8 8 8 8 9 9 9
9 10 9 9 7 7 7 6 5 3 3 3 2 1 1 1 1 1 2 2 3 3 4 4 4 5 5 6 6 6 6 6 7 7 7 8 8 8 8 8 8 8 8 8 8 8 8 8 8
9 9 9 7 6 7 6 6 5 3 2 2 1 1 0 0 0 1 1 1 2 2 3 3 3 4 4 4 5 5 5 5 6 6 7 7 7 7 7 7 7 7 7 7 7 7 7 7 7
8 8 8 7 6 6 6 7 5 3 2 1 1 0 0 -0 -0 -0 -0 0 1 1 2 2 2 3 3 3 4 4 4 5 5 6 6 6 6 6 6 7 7 6 6 6 7 7 7 7 7
8 7 6 6 7 8 6 8 7 4 3 2 1 0 -0 -1 -1 -1 -1 -0 -0 0 1 1 2 2 2 3 3 3 3 4 4 5 5 5 5 6 6 6 6 6 6 6 6 6 6 6 6
6 5 6 6 7 7 6 6 8 4 3 3 1 0 -1 -1 -1 -1 -1 -1 -1 -0 0 1 1 1 2 2 2 2 3 3 3 4 4 5 5 5 5 5 5 5 5 5 5 5 5 5 5
5 5 5 5 6 6 6 6 8 5 3 3 1 0 -1 -2 -2 -2 -2 -1 -1 -1 -1 -0 0 1 1 1 1 2 2 2 2 3 3 4 4 4 4 4 4 4 4 4 5 5 5 5 5
5 7 7 7 7 7 5 5 6 3 2 2 1 -1 -1 -2 -2 -2 -2 -2 -2 -1 -1 -1 -0 -0 0 0 1 1 1 1 2 2 2 2 3 3 3 3 3 4 4 4 4 4 4 4 4
5 6 6 7 7 7 4 5 5 2 0 -0 -1 -1 -2 -2 -2 -3 -3 -2 -2 -2 -2 -2 -1 -1 -1 -0 -0 0 0 0 1 1 1 2 2 2 2 2 3 3 3 3 3 3 4 4 4
5 5 5 5 4 4 6 5 3 1 0 -0 -1 -2 -2 -3 -3 -3 -3 -3 -3 -2 -2 -2 -2 -2 -1 -1 -1 -1 -1 -0 -0 0 1 1 1 1 2 2 2 2 2 3 3 3 3 3 3
4 4 4 4 4 5 6 5 5 1 0 -0 -1 -2 -3 -3 -3 -3 -3 -3 -3 -3 -3 -3 -3 -2 -2 -2 -2 -2 -1 -1 -1 -0 0 0 0 0 1 1 1 2 2 2 2 2 2 2 3
3 3 4 4 4 4 5 5 2 1 0 -1 -1 -2 -3 -4 -4 -4 -4 -4 -3 -3 -3 -3 -3 -3 -3 -2 -2 -2 -2 -1 -1 -1 -1 -0 -0 -0 0 0 1 1 1 1 1 1 1 2 2
3 3 3 4 3 3 3 4 0 -0 -1 -2 -2 -3 -4 -4 -4 -4 -4 -4 -4 -4 -4 -4 -4 -3 -3 -3 -3 -3 -2 -2 -2 -2 -1 -1 -1 -1 -0 -0 0 0 1 1 1 1 1 1 1
Wind_Speed
3 2 2 2 3 3 3 2 2 3 2 3 3 2 2 3 3 3 4 6 6 3 3 4 5 6 6 7 8 8 8 8 8 8 8 8 8 8 8 7 8 8 9 9 9 9 9 9 9
3 2 2 2 4 5 3 3 4 3 3 3 3 3 3 4 5 4 4 6 5 4 4 5 6 6 6 7 7 8 8 8 8 8 8 8 8 7 7 7 7 8 9 9 9 9 9 9 9
1 1 1 2 3 4 4 4 4 3 3 2 3 3 3 4 4 4 6 4 4 4 5 6 7 6 6 7 7 7 7 7 7 7 7 7 7 7 7 7 8 8 9 9 9 9 8 8 9
1 1 1 2 3 1 2 3 2 4 3 3 3 4 4 5 5 5 5 4 4 5 5 7 7 7 6 6 6 6 6 6 6 6 6 6 6 6 7 7 8 8 8 9 9 8 8 8 8
0 1 3 3 3 2 2 2 1 2 2 3 2 3 3 4 7 7 5 4 4 5 6 6 7 7 7 6 5 5 6 5 5 5 5 5 5 6 7 7 7 8 8 7 8 8 8 8 7
1 1 4 5 4 3 2 2 2 3 3 3 3 2 3 5 8 7 5 5 5 5 6 5 7 7 7 7 6 5 5 5 4 4 4 4 5 6 6 6 7 7 7 7 7 7 7 7 7
1 1 2 4 5 3 2 2 2 2 3 4 3 1 2 6 7 5 5 5 6 6 6 6 6 5 5 6 6 6 5 5 5 5 4 4 5 6 6 6 6 6 6 6 6 6 6 6 6
1 2 3 3 5 3 2 2 2 2 2 4 4 2 2 5 5 4 5 5 6 7 7 7 7 6 4 3 5 5 5 4 4 4 4 3 4 5 5 5 5 5 5 5 5 5 6 6 5
1 2 3 3 3 3 2 2 2 3 3 3 4 5 5 5 4 4 5 6 6 6 7 7 7 7 6 3 3 3 4 4 3 3 4 3 2 3 3 4 5 5 4 4 5 5 5 5 4
1 2 2 1 1 3 3 2 2 2 3 3 3 6 7 6 5 5 6 6 6 7 7 6 7 7 7 5 3 2 2 3 2 2 2 1 1 1 1 3 4 4 4 4 4 4 3 3 2
2 2 3 2 3 3 3 3 3 1 2 3 4 5 5 6 6 6 6 6 6 6 7 7 6 7 6 5 4 2 2 2 2 3 2 1 0 1 1 2 3 3 3 2 3 2 1 1 1
3 3 2 2 2 2 2 2 4 5 4 5 4 4 5 6 6 7 7 7 7 7 8 7 8 6 6 5 4 3 2 2 2 2 2 2 1 0 1 0 1 1 1 1 1 1 1 1 1
3 3 4 5 6 5 5 4 3 4 5 5 6 6 6 6 6 6 7 7 8 8 9 9 8 7 6 5 4 4 3 2 2 2 2 2 2 1 0 0 1 1 1 1 1 1 1 1 1
4 5 4 4 4 2 4 3 2 3 4 5 6 7 7 7 7 8 8 8 8 9 9 9 9 8 7 5 4 4 3 2 2 2 2 2 2 1 1 1 1 1 1 1 1 1 1 1 1
5 4 3 3 2 1 1 1 1 2 2 4 6 6 7 8 8 8 8 8 8 8 8 9 8 9 7 6 5 4 4 3 2 2 2 2 2 2 2 1 1 1 1 2 2 1 1 1 1
2 2 2 1 2 1 3 3 2 1 2 4 5 6 6 7 8 8 8 8 8 8 8 8 8 9 8 6 5 4 4 3 2 1 2 2 2 2 2 2 1 1 2 2 2 2 2 2 2
2 2 2 1 2 2 2 2 0 1 1 3 4 5 6 7 9 9 9 9 8 8 8 9 9 9 8 7 5 4 4 4 3 2 2 2 2 2 2 2 2 2 2 2 2 3 2 2 2
2 2 3 3 2 2 3 3 1 1 2 2 3 4 6 7 8 9 9 9 9 8 8 8 8 9 8 6 4 3 4 4 4 3 3 3 3 3 3 2 2 2 2 2 3 3 3 3 2
1 3 4 3 2 3 4 4 2 1 1 2 3 4 6 7 7 8 9 9 9 9 9 9 9 9 8 6 5 4 4 4 4 4 4 3 3 3 3 3 3 3 3 3 4 3 4 3 2
1 3 3 2 2 3 4 5 3 2 1 1 2 4 5 6 8 9 9 10 10 10 10 9 9 8 8 6 6 5 5 4 4 5 5 4 4 4 3 3 3 3 3 4 4 4 3 3 4
2 4 4 4 4 2 4 6 6 3 2 1 2 3 4 6 7 8 9 10 10 10 10 9 9 8 8 8 6 5 4 4 4 5 4 5 5 4 4 4 4 4 4 4 5 5 5 4 4
3 3 4 4 4 3 3 6 5 5 3 1 1 3 4 5 6 7 8 9 10 10 9 9 8 8 8 8 6 7 5 5 6 6 5 6 5 5 4 5 5 5 4 5 5 5 5 6 6
2 3 3 4 5 5 5 6 3 4 4 3 2 2 3 4 5 6 7 8 9 9 8 8 8 8 8 8 7 6 6 6 6 6 7 6 5 5 5 5 5 5 5 6 6 6 6 6 7
1 0 1 2 3 5 4 6 4 3 3 3 2 2 3 4 5 6 6 7 8 8 8 8 9 8 8 8 7 7 8 8 8 7 7 6 4 5 5 6 6 6 5 6 6 6 8 7 8
1 2 2 3 3 4 2 5 4 1 0 1 2 2 3 3 4 5 7 7 8 9 9 9 9 9 9 9 8 8 8 8 8 8 7 7 5 5 5 6 6 6 6 6 6 7 8 8 8
1 2 2 4 5 4 3 6 1 2 1 1 1 2 3 4 4 5 6 7 7 8 8 8 9 9 10 9 9 8 8 7 7 8 7 7 6 6 6 7 7 7 7 7 7 7 7 7 8
2 2 1 2 3 6 6 4 2 2 1 1 2 3 4 4 5 6 6 6 7 7 8 8 8 9 9 9 9 9 8 8 8 8 7 6 6 6 7 7 8 8 7 7 7 6 7 7 8
1 2 2 3 4 6 7 6 3 3 3 2 3 4 4 5 5 6 6 6 6 7 7 7 8 8 9 9 9 8 9 9 8 8 8 8 8 8 7 7 7 7 7 7 7 6 7 7 7
3 3 3 3 4 5 6 4 1 2 2 3 4 4 5 5 6 6 6 7 7 7 7 7 8 9 9 9 10 10 10 10 9 8 8 8 8 8 7 7 7 7 7 6 6 7 7 8 7
4 4 5 4 5 5 6 5 3 0 1 3 4 4 5 6 6 6 7 7 7 8 8 7 8 9 9 9 10 10 10 10 9 9 9 9 8 8 8 7 7 6 6 6 7 7 7 8 8
Wind_Direction
338 322 264 234 198 189 197 159 141 131 111 59 51 67 74 39 24 68 34 15 8 29 56 91 88 97 104 105 102 99 98 96 94 94 94 92 89 84 79 81 83 85 84 86 88 89 93 94 97
330 297 232 220 213 197 180 160 149 103 87 94 78 76 75 62 37 45 21 2 7 36 56 74 76 87 94 98 99 98 99 97 94 94 94 92 89 86 80 80 83 84 83 83 82 84 87 92 96
325 312 229 188 203 210 156 120 118 98 89 88 89 57 49 41 30 17 6 0 21 46 52 60 65 72 86 89 93 97 98 97 95 93 91 92 92 87 80 79 80 84 84 82 80 81 85 90 94
254 182 172 195 173 134 104 101 110 131 106 57 94 91 81 45 13 4 9 19 44 47 47 54 57 65 68 82 86 91 97 99 97 95 93 92 94 91 84 77 79 83 87 87 85 85 84 92 97
315 200 177 177 173 130 83 47 112 133 106 68 83 95 88 51 20 22 25 32 50 49 38 52 51 60 60 61 75 86 87 93 98 97 96 94 94 92 86 78 79 83 85 89 92 89 84 89 98
146 200 201 198 172 144 91 42 102 87 90 65 58 92 91 41 21 17 21 33 45 50 40 46 49 53 57 55 55 65 73 77 88 95 95 97 95 93 85 79 80 83 86 86 92 97 93 89 93
203 186 198 183 171 165 98 55 72 91 84 40 5 72 106 28 11 13 28 37 42 43 39 34 35 43 53 56 49 49 58 70 73 80 83 89 89 87 83 80 80 83 84 87 91 95 95 92 90
33 149 163 181 182 168 86 86 46 23 65 31 18 44 48 357 1 25 43 42 39 35 30 24 20 21 26 46 49 43 48 60 72 74 75 81 95 95 87 83 79 82 82 82 87 90 95 95 90
293 195 196 186 181 150 117 116 49 55 81 57 44 25 8 3 19 42 39 32 27 24 23 17 11 9 6 8 37 39 46 49 69 89 85 93 106 110 108 83 79 81 86 87 82 86 94 101 100
12 197 189 87 98 122 103 79 63 118 81 30 22 23 26 31 35 36 28 18 9 6 8 10 8 4 0 1 11 25 34 39 35 53 76 98 108 108 106 108 101 92 91 93 88 90 107 134 127
67 113 125 90 74 91 94 65 32 124 33 357 350 4 19 30 31 25 15 10 3 359 2 1 2 3 1 1 359 11 13 18 14 23 29 16 85 115 99 120 129 120 119 113 103 124 127 145 141
103 77 84 78 59 72 75 98 59 39 23 18 24 32 34 30 25 16 5 1 360 2 1 359 360 359 360 359 0 355 5 6 8 3 9 2 357 359 97 153 192 176 166 154 167 176 152 169 179
100 96 64 68 74 77 90 92 84 52 26 37 52 48 40 29 17 10 4 2 1 360 358 356 357 355 352 358 356 355 348 350 345 357 359 352 346 339 303 225 217 222 204 198 227 225 197 183 199
105 109 97 62 67 68 96 88 74 39 33 52 49 43 35 28 17 9 4 0 358 355 353 354 354 351 351 352 349 341 335 328 327 348 347 345 337 326 320 289 275 241 219 220 233 232 235 222 224
122 118 104 54 48 94 125 77 53 37 36 48 41 37 32 26 20 12 4 359 354 351 350 352 350 349 347 345 341 339 330 327 326 329 319 335 337 315 285 282 269 265 239 222 217 219 234 229 227
147 175 194 59 21 343 259 239 67 26 29 37 33 29 27 26 20 13 5 358 356 353 352 352 352 349 345 339 335 333 329 326 317 295 293 317 323 305 289 285 275 271 249 228 222 216 215 224 229
175 225 242 225 16 330 260 248 76 2 8 30 29 28 25 23 19 12 5 0 357 356 353 353 353 349 343 335 330 330 336 328 317 300 308 301 284 282 282 281 284 257 248 237 233 222 215 222 227
228 245 246 253 347 308 246 239 237 27 36 44 35 29 24 18 9 4 3 1 360 359 357 355 354 352 345 339 333 332 336 332 330 320 314 300 292 278 277 285 281 268 254 240 236 229 222 225 222
217 236 261 281 330 288 243 249 237 145 61 40 28 21 19 13 5 6 5 4 3 3 1 358 357 356 353 346 338 324 321 316 319 316 302 292 287 276 273 288 279 271 256 248 237 232 224 222 211
211 247 276 283 324 284 259 258 216 173 139 42 21 13 11 5 5 6 5 5 4 1 358 356 356 354 352 346 335 321 311 302 304 318 308 292 283 275 272 268 260 257 256 252 246 229 230 230 213
259 268 278 287 308 240 269 245 198 191 171 81 23 9 6 4 0 360 1 1 1 0 356 352 351 351 351 347 340 334 325 311 310 312 304 303 290 273 273 264 263 255 248 245 245 239 232 228 226
267 297 278 264 268 255 251 276 199 192 196 243 345 360 0 358 357 357 357 356 356 354 351 350 348 351 353 349 345 341 329 313 307 309 305 301 292 274 269 265 260 252 249 244 240 240 242 228 228
303 319 274 255 254 264 234 258 236 176 231 252 277 332 351 353 351 351 352 350 351 350 349 349 348 351 351 346 340 333 323 313 308 309 308 301 293 278 268 264 261 253 251 247 244 243 243 234 230
343 294 172 201 227 251 230 238 259 200 243 251 260 308 335 343 344 344 347 349 350 352 352 351 351 347 345 341 336 330 320 317 313 311 308 302 294 286 278 272 262 254 251 248 246 243 241 240 237
354 284 272 252 239 253 170 241 263 89 344 273 278 307 327 334 338 339 342 344 346 350 352 351 350 347 344 339 336 330 323 316 312 306 303 304 297 290 283 283 268 258 255 253 251 246 243 242 240
221 257 262 278 277 280 234 247 253 102 53 344 302 310 324 330 333 333 334 335 337 341 344 346 346 343 342 339 334 328 323 317 312 309 305 300 295 291 295 290 279 266 260 256 249 246 244 245 244
186 204 297 273 283 274 254 251 228 181 297 318 317 323 324 328 332 332 328 330 330 333 336 337 337 336 335 334 332 327 325 319 312 309 307 301 298 298 294 287 279 269 261 257 254 245 245 246 247
345 154 181 226 270 271 269 260 261 219 262 292 304 307 316 319 323 326 327 324 325 325 325 331 332 330 328 330 328 323 320 319 316 312 311 303 301 298 291 287 281 270 261 257 251 250 245 244 246
164 178 213 227 254 267 278 274 44 234 243 269 287 297 305 314 318 318 320 322 323 327 326 329 329 329 327 327 323 321 321 320 318 316 312 306 301 298 287 283 281 276 259 250 247 247 245 243 246
226 219 207 236 242 240 269 274 88 271 266 278 292 300 306 310 315 317 320 323 324 329 328 326 327 325 324 322 319 317 317 317 317 314 313 310 303 298 291 282 277 274 267 252 245 245 245 244 244
Height
1523 1524 1526 1528 1527 1524 1525 1528 1529 1531 1533 1537 1537 1536 1535 1536 1538 1546 1547 1543 1543 1544 1544 1545 1545 1546 1546 1547 1547 1547 1547 1547 1547 1547 1548 1548 1548 1548 1548 1548 1548 1548 1548 1548 1548 1548 1548 1549 1549
1524 1525 1528 1528 1522 1523 1527 1528 1531 1533 1537 1538 1538 1538 1538 1541 1544 1545 1544 1543 1543 1544 1544 1545 1545 1546 1546 1547 1547 1548 1548 1548 1548 1548 1548 1548 1548 1549 1549 1549 1549 1549 1549 1549 1549 1549 1549 1549 1549
1525 1526 1529 1525 1522 1521 1526 1531 1533 1537 1538 1539 1539 1541 1542 1545 1546 1545 1545 1544 1544 1544 1545 1545 1546 1546 1547 1547 1547 1548 1548 1548 1548 1548 1548 1548 1548 1549 1549 1549 1549 1549 1549 1549 1549 1549 1549 1549 1550
1526 1528 1529 1525 1526 1530 1531 1534 1536 1537 1539 1540 1540 1542 1545 1547 1547 1546 1545 1545 1544 1544 1545 1545 1546 1546 1547 1548 1548 1548 1548 1548 1548 1548 1548 1548 1548 1548 1549 1549 1549 1549 1549 1549 1549 1549 1549 1550 1550
1527 1528 1526 1527 1529 1533 1536 1538 1539 1537 1539 1541 1541 1542 1546 1547 1546 1546 1545 1545 1545 1545 1545 1545 1546 1546 1547 1547 1548 1548 1548 1548 1548 1548 1548 1548 1548 1548 1548 1548 1549 1549 1549 1549 1549 1549 1549 1550 1550
1528 1526 1524 1525 1529 1535 1538 1540 1540 1539 1541 1542 1543 1544 1547 1547 1546 1545 1545 1545 1545 1545 1545 1545 1546 1546 1547 1547 1547 1547 1548 1548 1548 1547 1547 1547 1547 1547 1547 1548 1548 1548 1548 1548 1549 1549 1549 1549 1550
1529 1526 1525 1527 1531 1534 1540 1542 1542 1541 1542 1545 1545 1545 1547 1547 1546 1546 1545 1545 1545 1545 1545 1545 1546 1546 1546 1547 1547 1547 1547 1547 1547 1547 1547 1547 1547 1547 1547 1547 1547 1548 1548 1548 1548 1548 1549 1549 1550
1528 1528 1529 1530 1532 1536 1542 1543 1544 1544 1545 1547 1547 1547 1548 1548 1546 1546 1546 1545 1545 1545 1545 1545 1545 1545 1545 1546 1546 1546 1546 1546 1546 1546 1546 1546 1546 1546 1546 1546 1547 1547 1547 1547 1547 1548 1548 1549 1549
1529 1530 1529 1532 1534 1538 1542 1543 1546 1546 1547 1548 1549 1550 1550 1548 1547 1546 1545 1545 1545 1544 1544 1544 1544 1544 1544 1545 1545 1545 1545 1545 1545 1545 1545 1545 1545 1545 1545 1546 1546 1546 1546 1546 1547 1547 1547 1548 1548
1531 1530 1534 1539 1539 1540 1543 1544 1546 1547 1547 1549 1549 1549 1548 1548 1547 1546 1545 1544 1544 1543 1543 1543 1543 1543 1543 1543 1543 1544 1544 1544 1544 1544 1544 1544 1544 1544 1544 1545 1545 1545 1545 1545 1546 1546 1547 1547 1548
1533 1535 1539 1542 1543 1543 1545 1547 1548 1547 1548 1551 1550 1549 1548 1547 1546 1546 1545 1544 1544 1543 1542 1542 1542 1542 1542 1541 1542 1542 1542 1542 1542 1542 1543 1543 1543 1543 1543 1543 1544 1544 1544 1544 1545 1545 1545 1546 1546
1537 1541 1542 1543 1544 1545 1546 1548 1550 1550 1552 1552 1551 1549 1548 1547 1546 1545 1544 1544 1543 1542 1542 1541 1541 1541 1540 1540 1540 1541 1541 1540 1540 1540 1541 1541 1541 1541 1541 1542 1542 1542 1543 1543 1543 1544 1544 1545 1545
1538 1542 1544 1545 1545 1546 1547 1549 1550 1553 1553 1552 1551 1549 1548 1546 1546 1545 1544 1543 1542 1541 1541 1540 1540 1539 1539 1539 1538 1538 1539 1539 1539 1539 1539 1539 1539 1539 1539 1540 1540 1541 1541 1541 1542 1542 1543 1543 1543
1541 1543 1545 1546 1546 1547 1548 1550 1551 1553 1553 1552 1550 1549 1548 1546 1545 1544 1543 1542 1541 1540 1539 1538 1538 1538 1537 1537 1536 1536 1536 1537 1537 1537 1537 1537 1537 1537 1537 1538 1538 1538 1539 1539 1540 1540 1541 1541 1541
1543 1543 1545 1546 1547 1548 1548 1548 1553 1554 1553 1552 1550 1549 1548 1546 1545 1544 1542 1541 1540 1538 1537 1536 1536 1535 1535 1535 1534 1534 1534 1534 1535 1534 1535 1534 1535 1535 1535 1535 1535 1536 1537 1537 1538 1538 1539 1539 1539
1542 1540 1540 1546 1547 1547 1548 1544 1553 1553 1552 1551 1550 1549 1548 1546 1545 1543 1542 1540 1539 1537 1536 1535 1534 1533 1533 1532 1532 1532 1531 1531 1532 1532 1532 1532 1532 1532 1532 1532 1533 1533 1534 1535 1535 1535 1536 1536 1536
1539 1537 1539 1544 1547 1547 1546 1545 1552 1553 1552 1551 1550 1549 1548 1546 1544 1542 1541 1539 1537 1536 1534 1533 1531 1531 1530 1530 1529 1529 1528 1528 1528 1529 1529 1529 1529 1529 1529 1530 1530 1530 1531 1532 1532 1533 1533 1533 1533
1538 1537 1540 1541 1546 1547 1545 1547 1551 1552 1552 1551 1550 1549 1548 1545 1544 1542 1540 1538 1536 1534 1533 1531 1530 1528 1528 1527 1527 1526 1526 1525 1525 1525 1525 1526 1526 1526 1527 1527 1527 1527 1528 1528 1528 1529 1530 1530 1531
1541 1540 1540 1543 1548 1547 1544 1546 1549 1552 1552 1551 1550 1549 1547 1546 1544 1542 1539 1537 1535 1533 1531 1529 1528 1526 1525 1524 1523 1523 1522 1522 1521 1522 1522 1522 1522 1523 1523 1523 1523 1524 1524 1525 1525 1525 1526 1527 1528
1542 1541 1541 1545 1548 1546 1545 1545 1548 1551 1551 1551 1550 1549 1547 1545 1543 1540 1538 1536 1533 1531 1529 1527 1526 1524 1523 1522 1521 1520 1519 1518 1518 1517 1518 1518 1518 1519 1519 1519 1519 1519 1520 1521 1521 1522 1522 1523 1524
1543 1542 1542 1544 1547 1547 1545 1538 1544 1549 1550 1551 1550 1549 1547 1545 1542 1540 1537 1535 1533 1530 1528 1526 1524 1522 1521 1519 1518 1517 1516 1515 1514 1514 1514 1514 1514 1514 1514 1515 1515 1515 1516 1516 1517 1518 1518 1519 1520
1542 1546 1546 1546 1543 1537 1543 1530 1534 1543 1547 1548 1548 1547 1546 1544 1542 1540 1537 1534 1531 1529 1527 1524 1522 1521 1519 1517 1516 1515 1513 1512 1510 1510 1509 1509 1509 1510 1510 1510 1510 1511 1511 1512 1512 1514 1514 1515 1516
1546 1548 1547 1545 1541 1540 1541 1538 1527 1541 1542 1544 1546 1546 1545 1543 1541 1539 1536 1534 1531 1528 1526 1523 1521 1519 1517 1515 1513 1512 1510 1508 1507 1506 1505 1505 1505 1505 1505 1505 1505 1506 1506 1507 1508 1509 1510 1511 1512
1549 1548 1546 1545 1542 1538 1536 1537 1523 1535 1539 1541 1544 1544 1544 1542 1540 1538 1535 1533 1530 1527 1524 1522 1519 1517 1515 1513 1511 1509 1507 1505 1503 1502 1501 1501 1500 1500 1500 1500 1500 1500 1501 1502 1502 1503 1505 1506 1507
1548 1543 1537 1535 1533 1528 1540 1538 1530 1538 1541 1542 1543 1543 1542 1541 1539 1536 1534 1531 1528 1525 1522 1520 1517 1514 1512 1510 1508 1506 1504 1502 1500 1498 1497 1496 1495 1495 1495 1495 1495 1495 1496 1497 1497 1498 1499 1500 1501
1548 1545 1542 1537 1529 1526 1538 1533 1532 1542 1543 1543 1543 1543 1541 1539 1537 1535 1533 1530 1527 1524 1521 1518 1515 1512 1509 1507 1505 1503 1501 1499 1496 1495 1493 1492 1491 1490 1490 1490 1491 1491 1491 1491 1492 1492 1493 1494 1496
1548 1547 1549 1547 1547 1543 1527 1531 1538 1542 1543 1543 1542 1541 1539 1538 1535 1533 1531 1528 1525 1522 1519 1516 1513 1510 1507 1505 1502 1500 1498 1495 1493 1491 1489 1488 1487 1486 1486 1486 1486 1486 1486 1486 1486 1487 1487 1489 1490
1551 1550 1550 1546 1542 1532 1523 1524 1526 1538 1539 1541 1541 1539 1538 1536 1534 1531 1529 1526 1523 1520 1517 1514 1511 1508 1505 1503 1500 1497 1495 1492 1490 1488 1485 1484 1483 1482 1482 1481 1481 1481 1480 1481 1481 1482 1482 1484 1484
1552 1552 1548 1545 1544 1536 1527 1523 1534 1536 1539 1540 1540 1539 1537 1535 1532 1529 1527 1524 1521 1518 1515 1512 1509 1506 1503 1500 1498 1495 1492 1489 1487 1484 1482 1480 1479 1478 1477 1476 1476 1475 1475 1475 1475 1476 1477 1478 1479
1549 1548 1547 1545 1543 1543 1535 1531 1538 1539 1539 1539 1539 1537 1535 1533 1531 1528 1525 1522 1518 1515 1512 1509 1507 1504 1501 1498 1495 1491 1489 1486 1483 1481 1478 1476 1474 1473 1472 1472 1471 1470 1470 1470 1470 1471 1472 1473 1473